Theta_e
362 363 361 361 361 360 354 345 321 326 328 316 319 322 317 332 331 329 329 334 328 335 336 334 332 335 329 327 328 330 331 328 330 321 318 333 345 349 352 354 355 355 356 359 363 364 363 366 366 366 366 365 364 364 365 365 364 364 364 363 365 365 364 364 364 363 363 362 360 361 361 360 360 361 361 362 363 363 363 363 363 362 363 362 361 361 361 361 360 361 361 361 361 361 361 361 361
362 361 360 363 359 353 335 346 325 322 322 317 319 323 324 329 328 326 327 330 331 332 338 339 338 336 337 334 332 331 330 334 335 333 337 341 344 346 349 353 355 355 356 357 358 361 362 364 365 366 365 365 364 364 364 365 365 365 364 364 364 364 365 364 364 363 363 362 361 360 361 360 360 360 360 360 362 362 362 362 362 361 361 361 360 360 360 360 359 360 360 360 360 360 361 360 361
361 360 361 363 358 350 342 339 319 319 315 311 317 321 330 329 324 329 333 334 334 337 339 336 339 339 335 336 327 327 324 340 337 337 335 339 335 339 346 350 351 355 356 354 354 356 362 363 366 365 364 364 364 364 364 365 366 365 364 364 364 363 363 365 365 363 362 362 361 361 361 361 361 361 361 362 361 361 361 361 361 360 359 360 360 359 360 359 360 360 359 360 361 360 361 361 361
361 362 358 356 339 348 331 328 322 317 313 316 317 325 329 327 328 331 334 335 336 333 335 336 334 344 337 331 331 330 329 331 336 334 331 333 334 341 345 347 352 352 353 353 354 355 361 364 365 364 364 364 364 364 364 365 364 364 365 365 364 364 364 364 364 364 363 362 362 362 363 362 363 364 361 361 359 360 359 360 359 360 360 360 360 360 360 360 359 360 360 360 360 361 360 362 361
360 366 361 350 342 330 330 327 323 323 314 317 316 326 328 330 329 331 332 332 331 332 335 338 335 344 345 341 342 325 328 337 339 338 335 337 341 343 344 344 347 348 350 354 355 355 361 364 364 364 364 364 364 364 364 364 364 364 364 364 364 364 363 363 363 363 364 363 364 364 364 359 359 359 358 359 358 359 359 360 360 360 360 360 359 359 359 359 359 359 360 360 359 360 361 360 361
360 358 361 353 336 345 336 322 319 319 324 326 321 324 329 331 330 331 330 331 334 337 338 336 333 335 337 342 345 335 346 330 338 336 336 337 341 341 341 345 347 348 351 355 355 356 358 365 365 365 365 364 364 365 365 364 364 364 364 364 364 364 363 363 363 363 362 362 359 359 359 359 358 359 359 359 359 358 358 358 358 358 358 358 357 358 358 358 359 359 360 361 360 360 360 361 361
353 350 347 347 343 342 323 322 319 321 324 330 326 328 330 331 333 333 329 328 336 339 343 336 339 339 333 341 344 351 354 351 350 338 343 340 340 342 343 344 346 348 352 355 355 355 360 366 365 365 365 364 364 363 363 362 364 363 362 363 363 362 361 361 360 361 361 360 359 359 358 359 358 357 356 357 358 357 357 357 357 357 357 359 360 362 363 363 363 364 364 364 363 363 363 362 361
360 345 341 332 328 331 321 322 322 323 325 331 332 330 331 333 334 332 328 328 327 333 338 340 341 337 335 349 333 349 351 349 346 342 346 341 341 344 346 346 346 349 352 355 355 358 366 364 365 365 365 364 363 363 362 362 362 362 362 362 361 361 361 361 360 360 359 359 359 358 357 357 357 357 355 356 355 352 354 356 358 358 359 362 363 363 364 363 362 363 363 362 362 363 363 363 363
356 349 348 334 325 329 324 322 324 332 330 333 333 336 336 335 336 333 330 331 334 338 338 337 338 331 335 338 338 347 348 349 348 349 341 343 344 345 344 345 345 348 353 356 358 359 359 364 364 365 364 364 362 363 363 363 362 362 361 361 361 361 359 359 359 359 357 358 358 357 357 356 357 356 355 356 356 359 358 358 360 360 361 362 362 362 362 362 362 362 362 362 361 362 361 361 362
350 347 332 331 329 318 322 324 324 327 331 333 332 333 334 336 334 334 331 330 335 339 337 340 339 334 337 333 337 343 345 352 347 343 342 347 350 348 344 346 347 352 355 354 355 358 359 367 366 365 363 363 362 363 362 362 361 361 360 360 360 360 359 358 358 357 357 357 358 358 357 356 357 357 361 361 361 361 361 361 361 362 362 361 361 361 361 360 360 360 361 361 361 362 362 361 361
338 344 345 328 321 321 319 322 326 329 330 333 333 336 336 335 334 333 335 334 339 337 337 341 336 337 338 337 344 351 352 351 351 344 351 348 349 347 346 347 350 353 352 353 354 357 358 357 364 363 363 362 362 362 361 362 362 361 359 360 360 359 359 359 359 358 358 357 359 359 361 361 360 361 361 361 361 361 361 361 360 361 360 361 360 359 359 359 360 360 361 361 361 361 361 361 362
335 336 337 325 321 321 321 321 325 327 331 332 330 334 335 335 337 332 334 334 337 336 337 341 335 342 336 336 338 347 351 353 350 351 350 349 347 349 353 349 350 352 353 353 354 354 356 358 358 362 362 361 361 361 361 360 360 360 360 360 359 358 359 359 359 359 360 362 361 361 361 360 360 361 361 361 362 361 360 360 360 360 359 359 360 359 359 359 360 359 359 360 360 361 361 361 361
338 338 330 326 324 324 324 324 325 328 328 329 330 336 337 334 333 336 334 337 337 335 334 342 344 345 331 335 343 349 347 352 354 351 348 349 350 349 351 347 348 355 356 355 352 354 357 357 356 359 360 362 362 361 360 360 360 359 360 360 358 358 359 360 361 362 361 362 361 361 360 360 360 361 361 361 360 360 359 358 359 359 359 359 359 359 360 360 360 360 360 360 360 361 361 361 361
341 338 333 321 325 323 325 325 327 322 325 332 336 339 341 338 338 341 336 335 335 335 341 344 344 344 336 339 341 341 347 354 353 350 348 351 352 349 348 348 351 352 360 359 355 354 354 355 357 357 360 361 361 361 361 360 361 361 360 361 361 363 362 362 361 361 360 361 360 360 360 360 360 360 359 359 359 360 360 359 359 359 360 360 359 360 360 361 361 361 360 360 360 361 361 361 361
336 339 331 326 324 324 326 323 321 321 324 333 336 338 335 339 341 339 337 334 335 342 345 347 344 341 329 334 335 341 348 354 350 348 347 348 346 347 348 352 353 355 353 354 356 356 356 355 355 357 361 360 360 361 361 360 361 361 361 364 363 361 361 361 360 360 360 360 360 360 359 358 360 358 359 359 358 359 360 360 360 360 360 361 360 360 361 361 362 362 361 361 359 359 361 362 362
343 337 332 322 320 322 323 323 325 322 323 334 339 338 338 340 342 340 338 341 339 341 344 336 347 340 341 339 341 347 351 352 348 351 348 348 346 349 348 348 349 352 354 353 355 354 356 356 356 357 359 359 361 361 362 362 360 362 362 363 362 361 360 360 360 360 359 360 360 360 358 359 358 358 359 359 360 361 361 360 360 359 360 361 361 361 361 359 358 359 357 357 358 358 358 359 360
339 338 326 321 318 320 322 323 325 320 328 333 338 336 333 333 339 339 343 342 335 335 340 342 343 346 342 346 348 352 351 351 350 348 345 345 345 344 344 344 344 347 353 354 353 353 357 357 360 358 360 362 363 362 362 363 361 361 359 359 361 361 360 360 360 360 360 359 358 358 359 360 360 359 359 360 359 361 361 362 361 360 360 361 362 361 360 357 356 357 357 356 357 358 357 358 360
333 326 321 317 319 319 324 322 326 331 328 331 332 334 330 330 334 335 338 335 333 338 337 342 348 349 348 349 352 352 349 345 347 344 342 342 341 339 338 340 341 345 348 351 352 353 352 356 357 358 358 361 361 363 362 362 361 361 360 362 361 360 360 359 360 361 359 359 358 360 362 360 362 362 359 360 363 360 360 364 364 363 362 362 360 360 358 357 357 357 358 357 358 359 360 357 359
333 320 320 316 321 322 330 329 329 329 328 331 332 335 331 330 333 333 334 333 331 334 336 339 342 347 350 351 351 348 345 346 346 342 343 341 338 337 339 340 343 344 346 346 350 351 357 354 355 357 359 361 361 361 361 360 361 361 360 360 359 358 360 360 360 358 357 355 356 356 360 361 361 364 365 364 362 362 362 365 365 363 362 361 360 360 360 357 359 360 359 359 360 361 359 357 358
327 324 317 317 323 326 330 329 327 330 332 329 330 333 332 330 333 335 332 332 332 333 331 336 340 341 344 346 345 343 344 345 343 342 340 343 346 340 346 340 340 344 344 346 350 357 359 360 359 360 360 362 362 359 358 360 359 362 357 358 359 359 359 359 357 357 358 356 353 360 363 360 358 365 363 358 359 363 359 362 364 362 361 360 360 361 357 362 361 363 363 362 361 360 357 350 344
328 323 318 322 327 325 328 331 331 331 331 330 330 332 328 332 332 335 331 331 330 335 336 338 339 341 343 344 344 341 342 340 340 342 337 338 343 342 344 346 342 342 346 355 351 349 353 358 362 359 360 361 360 363 358 365 362 359 357 362 363 360 360 359 360 361 357 352 358 360 361 358 354 357 361 364 363 363 360 361 363 359 362 361 360 354 352 352 359 352 355 363 358 347 347 350 349
328 324 326 326 325 323 329 329 330 330 333 330 331 330 326 333 332 332 332 329 326 332 338 342 344 345 343 342 343 342 340 336 339 340 338 342 342 343 344 346 348 345 351 350 349 350 351 358 360 361 359 361 358 357 360 359 360 358 360 358 357 356 357 356 358 356 360 362 362 361 360 357 361 360 361 361 365 369 364 355 353 355 359 352 358 352 355 358 351 348 350 348 345 345 346 348 350
321 326 326 328 328 325 328 329 331 333 330 329 330 326 329 331 328 333 331 330 332 339 341 344 346 347 346 345 343 340 337 336 339 339 339 344 344 347 348 346 345 346 351 351 351 351 352 355 358 358 358 359 359 360 358 359 359 358 359 358 357 356 355 352 355 359 362 362 363 362 364 362 361 360 359 361 360 365 358 360 359 357 357 354 353 346 352 355 353 354 354 348 346 345 343 346 346
327 323 328 328 329 326 330 331 333 334 330 327 328 332 328 330 325 329 331 332 336 338 342 344 346 349 348 344 343 340 338 337 339 343 343 347 352 351 347 350 351 351 352 352 353 353 354 354 360 359 356 359 358 360 359 358 361 358 358 356 357 359 357 355 352 360 363 359 361 361 359 355 354 354 353 352 352 353 352 353 354 356 351 354 352 353 350 347 349 356 352 346 345 345 339 337 341
324 324 327 328 330 330 331 331 331 331 332 333 333 330 325 328 323 329 329 331 337 338 343 345 346 346 346 345 343 340 338 339 342 343 346 347 354 351 349 353 350 351 351 351 352 353 355 356 356 355 357 356 358 361 359 358 360 360 359 358 361 358 356 356 358 361 360 358 357 356 354 352 350 347 346 346 349 348 350 351 353 350 353 351 353 350 349 348 348 348 345 343 343 342 341 340 342
326 325 330 330 329 330 331 329 332 330 329 335 331 327 328 328 328 327 329 332 336 338 339 340 343 341 341 344 344 341 343 341 341 341 345 346 348 349 348 349 350 351 356 351 351 353 355 357 355 356 359 358 359 357 356 357 357 357 359 359 359 360 356 359 358 356 358 349 347 351 352 353 351 346 346 346 346 347 346 344 351 348 355 352 349 345 347 347 347 349 347 344 338 340 339 341 343
330 329 329 329 329 331 332 330 331 331 330 333 330 326 328 330 328 320 330 333 335 335 337 340 340 339 340 341 344 341 342 343 343 346 350 351 351 347 347 350 351 352 352 350 351 354 357 360 358 358 358 360 359 356 356 356 358 359 359 359 358 358 359 360 357 352 347 348 349 350 351 351 350 349 346 345 349 349 346 346 351 348 351 349 346 346 349 350 347 348 345 346 339 340 341 341 343
328 329 329 330 330 330 330 329 330 332 329 333 330 331 337 330 328 325 329 332 334 333 334 335 335 336 337 339 341 344 342 343 344 347 347 347 348 347 345 346 350 350 352 352 352 354 359 359 359 359 359 358 359 356 358 357 358 358 359 358 356 357 360 353 350 348 347 347 350 348 349 348 349 348 348 346 346 351 349 348 354 350 345 350 351 348 344 349 350 344 346 345 344 342 340 341 344
328 327 322 325 327 325 328 328 326 332 327 333 336 335 332 328 325 328 330 332 332 331 334 333 335 335 336 338 339 340 340 342 345 347 346 348 350 348 347 350 353 351 351 354 356 357 358 358 357 359 358 358 358 357 357 357 357 357 356 355 355 353 356 353 348 347 347 346 349 349 348 348 349 347 350 349 348 351 350 350 350 346 345 348 351 345 343 347 347 337 342 341 340 338 339 342 344
328 327 325 326 321 322 326 328 327 328 328 335 333 316 320 329 332 328 331 330 331 331 331 332 333 334 334 336 335 337 340 342 343 345 343 345 348 355 353 351 354 353 352 356 358 357 357 358 358 358 357 357 358 359 359 355 357 356 356 354 356 355 351 348 349 350 348 346 346 348 346 348 348 350 349 350 350 349 350 347 344 342 345 348 345 345 341 344 339 337 339 338 338 337 336 338 339
320 326 325 319 318 317 325 325 327 324 331 332 331 317 319 328 329 329 331 330 328 329 329 330 332 333 334 334 336 336 338 341 342 344 344 344 350 351 355 356 355 356 356 357 356 357 357 357 357 355 357 357 357 357 356 355 355 354 354 353 354 356 354 348 343 346 346 346 345 344 346 347 349 349 350 350 349 349 346 345 342 343 345 345 342 344 345 339 337 337 337 337 335 335 335 337 337
326 322 316 322 319 318 323 329 325 322 326 330 325 318 318 327 328 330 333 334 329 330 330 329 331 331 332 334 334 335 334 338 341 342 346 346 349 351 352 354 357 355 357 357 356 357 357 358 357 354 355 356 356 357 357 358 358 361 357 354 356 357 349 347 345 345 345 345 344 345 347 346 347 348 349 350 349 344 343 343 340 342 346 341 342 342 344 337 335 336 338 337 334 332 335 333 338
321 320 318 314 317 318 320 324 326 326 325 327 323 316 320 322 328 329 330 330 329 329 328 328 330 331 331 332 334 335 335 337 337 338 343 346 349 351 351 353 355 357 358 357 357 356 355 356 358 355 354 355 355 355 358 357 360 358 356 354 351 355 351 346 345 344 344 344 344 342 346 347 346 347 347 348 349 346 342 340 339 339 344 342 340 342 337 337 334 334 338 339 337 335 333 329 333
316 321 314 317 317 317 316 322 327 324 325 320 324 318 319 322 327 328 330 330 328 327 327 328 330 331 331 333 333 333 334 335 336 338 346 347 348 351 352 355 355 356 358 359 358 356 354 355 356 355 355 354 357 357 358 357 357 357 354 354 355 348 349 348 347 345 344 343 342 343 345 345 346 346 347 345 344 343 343 340 340 342 342 342 341 341 334 337 335 336 335 338 337 336 334 329 330
313 313 313 314 319 318 317 317 320 321 323 321 321 320 320 321 323 327 330 330 329 328 327 328 329 329 330 332 333 333 333 335 335 337 345 345 347 350 351 355 353 354 356 358 358 358 357 357 357 357 355 356 356 358 358 355 356 357 353 350 347 349 350 348 347 344 343 344 341 345 346 345 345 344 345 345 342 339 341 339 340 339 341 341 339 335 333 334 335 334 333 333 337 336 341 330 331
313 314 313 314 311 316 318 317 322 322 319 320 321 318 318 320 322 328 330 329 328 328 330 331 333 333 330 331 331 331 333 333 338 340 344 348 347 348 351 354 354 355 356 357 356 357 357 356 357 357 356 356 357 356 355 353 351 351 347 348 345 346 347 347 344 341 344 342 342 344 344 344 344 343 343 342 343 342 340 340 339 334 336 338 338 335 333 331 331 332 332 330 335 335 337 331 334
315 315 314 313 313 314 318 319 321 324 319 317 318 318 318 319 321 328 331 330 329 328 327 331 333 335 336 333 331 331 333 335 338 341 341 343 350 349 352 354 354 356 356 355 355 356 356 354 355 354 356 357 355 353 353 351 348 349 350 344 343 342 345 342 341 342 341 341 345 344 344 345 341 341 342 343 339 339 340 341 341 337 335 337 337 335 337 335 334 333 334 337 331 334 329 329 333
314 313 313 311 312 310 316 316 320 322 317 316 319 317 318 320 323 328 331 329 327 327 327 332 330 333 334 334 332 334 335 336 335 339 343 343 343 352 351 354 356 354 354 356 354 356 356 357 356 355 356 356 356 355 353 352 352 349 347 347 343 341 340 340 338 341 340 340 343 342 340 341 343 341 342 341 337 337 336 336 338 336 334 336 338 336 339 336 335 329 333 331 334 330 334 327 333
314 312 312 310 311 314 316 316 318 319 316 314 317 315 315 318 321 327 328 328 328 328 328 329 333 332 332 336 333 336 336 337 335 338 341 343 345 352 353 354 355 356 355 355 356 357 355 356 357 356 356 355 355 356 355 353 354 354 350 347 344 341 341 342 340 341 342 340 338 339 340 339 341 337 339 340 332 331 335 335 334 337 334 336 338 334 336 331 331 328 330 330 327 332 334 331 333
311 311 310 308 312 310 308 314 316 317 315 314 316 313 315 321 326 329 331 330 330 331 329 328 329 332 334 334 333 333 335 336 335 338 339 342 343 347 350 354 355 356 356 355 355 355 355 357 357 356 356 355 356 356 356 353 354 355 355 352 348 343 340 342 342 341 342 340 336 337 338 339 336 333 332 333 332 332 334 334 335 335 335 336 338 335 334 324 330 332 329 331 330 327 328 330 329
313 312 311 309 310 311 311 311 315 317 317 316 315 313 313 320 317 321 328 332 330 329 331 329 331 332 335 337 335 335 335 337 337 339 341 343 344 345 348 354 355 354 355 354 354 355 356 356 356 356 356 354 355 355 355 355 355 353 353 348 346 345 343 342 340 338 339 340 336 334 336 339 338 334 333 329 331 333 337 338 338 337 337 336 335 332 330 324 325 329 331 331 329 327 327 327 330
309 312 311 311 311 310 311 312 312 310 309 313 312 305 306 315 317 317 329 328 326 330 329 329 332 332 332 334 335 339 342 339 339 338 342 344 346 346 350 353 353 353 354 355 354 355 355 355 356 357 357 355 353 353 355 354 352 350 350 345 343 340 340 336 340 338 335 337 333 336 336 335 336 334 336 333 331 333 335 336 336 335 335 337 332 328 329 328 327 327 328 329 326 329 328 328 324
307 309 313 312 312 312 311 311 311 306 305 312 314 305 302 312 313 318 324 328 329 330 330 332 333 335 330 332 336 337 339 339 340 338 340 345 346 344 349 353 355 354 354 356 356 356 355 356 357 356 356 356 355 356 355 354 351 349 346 343 341 339 337 341 341 341 339 338 338 335 334 334 335 333 333 334 333 336 336 336 336 334 331 332 332 329 325 322 324 325 329 327 326 331 329 326 324
306 313 313 312 311 309 310 310 310 309 313 313 313 310 305 304 311 319 322 320 323 330 331 331 333 333 329 331 336 338 337 338 341 340 339 343 346 346 347 353 354 354 356 357 356 356 357 357 357 356 357 356 355 355 354 354 350 349 347 345 344 340 338 340 341 340 340 341 339 332 331 333 335 334 332 335 334 332 335 334 334 332 332 329 329 326 323 324 324 326 329 329 331 331 328 325 326
309 313 313 311 311 311 311 310 308 309 308 304 308 311 305 305 313 317 319 316 319 321 329 331 333 333 332 332 332 337 341 341 340 342 340 342 344 350 351 353 354 356 357 356 356 356 357 358 358 358 356 356 355 354 353 352 353 351 348 345 344 345 342 343 340 341 341 338 332 336 332 330 330 332 333 331 333 333 337 336 335 333 328 329 330 328 326 324 325 326 327 326 326 326 325 328 328
312 313 314 313 313 312 311 308 308 307 305 300 305 308 302 303 310 312 319 315 316 318 323 330 334 333 334 334 333 332 339 342 343 348 344 344 349 352 354 355 355 355 357 359 358 357 356 357 357 357 355 355 355 354 353 352 351 351 349 347 345 344 345 344 341 341 340 340 334 332 334 332 325 325 328 333 335 335 335 336 329 328 327 325 328 326 327 329 327 329 327 325 327 328 327 324 324
315 313 311 310 310 309 309 309 308 306 300 303 307 308 306 300 308 309 311 311 315 316 321 334 336 334 335 335 334 333 336 345 345 345 348 350 352 352 354 353 355 356 356 358 356 356 356 355 356 355 355 355 354 353 353 350 351 350 349 348 346 344 342 341 339 338 340 339 335 325 331 332 333 327 326 330 329 329 331 334 327 325 328 331 330 326 326 325 324 326 323 328 328 328 326 326 324
312 309 307 306 306 308 307 306 307 299 298 304 308 308 309 300 306 312 316 317 317 316 321 326 330 334 334 335 335 336 338 343 345 346 350 349 352 354 354 354 355 357 356 356 355 355 354 355 355 354 354 354 354 353 353 350 350 350 349 347 346 345 343 338 338 335 336 335 331 330 336 340 329 327 333 331 326 325 332 331 330 328 329 327 327 329 328 327 325 326 327 328 328 333 331 331 326
310 308 307 301 300 302 298 303 298 298 298 305 309 310 306 305 309 312 314 316 317 322 325 320 326 336 337 336 337 340 343 341 346 346 348 351 352 351 351 354 355 354 354 355 355 354 353 355 355 352 352 354 353 352 351 351 350 349 349 347 347 346 345 342 339 338 336 335 331 329 332 330 330 329 326 323 324 325 329 328 327 328 330 332 336 332 330 332 332 328 327 324 327 328 331 328 329
308 306 305 301 298 297 295 298 301 300 305 309 309 312 305 308 311 316 315 318 320 322 325 325 325 326 329 338 340 339 339 345 349 347 348 352 353 353 353 354 355 355 354 354 355 353 353 354 354 352 351 353 353 352 351 350 349 349 349 347 345 345 344 340 338 336 334 335 334 332 327 326 333 327 325 327 324 324 324 327 327 328 333 333 335 335 331 331 333 329 328 329 324 331 328 330 325
308 311 307 304 303 298 295 298 296 299 302 305 310 305 303 303 308 315 319 320 322 322 324 326 327 328 331 339 340 339 343 350 352 350 348 352 353 354 353 354 355 356 355 354 354 353 354 352 351 352 351 352 352 351 350 348 348 348 349 348 347 345 342 339 339 343 338 330 329 325 330 326 326 328 330 331 331 328 326 327 326 329 329 333 334 331 324 328 332 329 330 332 329 324 326 325 321
310 310 311 306 303 307 299 301 300 300 300 301 304 304 308 308 316 318 320 319 321 323 324 331 331 331 332 334 339 337 340 344 348 349 353 355 355 353 353 355 356 355 355 354 353 353 351 352 351 352 351 351 350 350 349 348 347 348 348 346 344 344 345 342 345 344 339 335 332 327 331 332 328 327 331 333 328 330 329 328 327 328 333 328 330 332 330 331 330 331 331 330 328 325 326 323 323
308 308 303 306 312 309 304 304 306 305 302 299 306 304 307 314 317 318 318 319 319 322 326 332 337 336 336 337 336 337 339 349 349 350 352 352 351 347 349 354 355 355 354 353 353 351 352 352 351 351 351 350 350 349 348 347 347 347 345 345 344 341 338 335 333 333 331 330 333 329 326 325 325 328 327 329 329 332 329 327 326 323 330 333 333 334 329 330 332 330 329 331 327 325 329 324 323
309 304 307 313 314 312 306 299 302 300 297 301 306 302 304 306 303 316 316 316 318 322 328 333 336 339 337 338 338 347 345 350 352 353 354 352 351 350 351 352 355 355 354 353 353 352 352 351 350 350 350 348 348 348 347 347 346 345 344 343 341 339 337 335 335 333 329 329 331 331 329 326 324 325 327 326 326 326 334 330 328 329 327 329 329 329 331 331 332 329 329 329 329 332 329 327 325
309 307 314 306 302 301 306 302 296 296 295 298 302 305 305 308 308 312 313 317 319 323 327 329 333 340 342 343 346 348 349 350 351 351 353 351 353 353 353 352 356 356 355 353 354 352 350 350 352 350 349 348 349 348 347 347 346 344 343 341 338 338 338 339 336 332 331 327 325 325 326 332 329 329 329 329 327 325 327 327 330 327 330 329 326 327 330 329 328 327 326 322 327 331 331 326 327
313 313 309 312 308 304 302 304 305 304 298 297 301 304 305 310 313 319 318 321 323 323 325 327 334 340 342 345 346 347 347 350 352 354 354 354 353 355 354 353 354 355 354 353 352 351 350 350 352 349 350 349 348 347 347 345 345 344 342 342 342 347 341 333 331 329 325 325 324 326 328 324 324 326 326 327 326 329 327 326 325 322 323 324 324 323 326 331 332 330 326 322 324 332 327 326 324
306 306 305 307 307 310 308 307 304 302 301 301 300 298 309 317 321 323 325 327 328 326 328 337 342 344 345 346 346 347 349 349 352 355 354 353 353 352 355 355 356 356 355 352 351 350 350 350 348 348 347 346 345 345 345 344 345 343 343 342 344 337 333 335 329 328 325 325 326 327 324 325 329 330 329 327 327 331 327 323 322 324 322 326 331 330 328 333 334 333 328 329 327 329 331 325 329
308 307 305 306 304 303 300 299 308 305 302 300 299 303 315 323 328 326 326 329 331 332 335 340 343 344 345 346 346 347 346 346 349 352 353 353 354 353 354 356 356 353 353 351 351 351 350 348 347 347 346 344 343 342 344 344 342 342 340 337 339 335 335 333 332 332 325 324 323 324 327 327 325 329 329 324 325 324 327 327 324 323 324 324 329 331 323 328 328 329 326 320 320 329 331 330 329
Wind_Speed
9 6 5 4 3 3 2 2 1 1 1 1 2 1 3 4 6 6 5 5 5 2 3 4 6 5 7 8 13 11 10 9 5 2 6 5 9 16 15 16 16 15 13 11 11 11 12 13 13 13 12 13 12 12 11 11 10 10 9 11 11 10 9 9 9 9 8 8 8 8 7 6 4 5 5 2 4 6 6 6 5 4 3 3 3 2 2 1 1 2 1 2 1 2 0 1 1
8 7 6 5 2 2 1 1 0 1 0 3 3 3 2 3 5 8 6 5 5 4 4 2 4 4 3 8 9 12 16 13 13 12 11 10 14 14 16 16 17 16 13 12 11 11 12 12 14 14 13 13 12 13 12 11 11 10 9 10 10 10 10 9 9 9 8 8 8 7 7 5 4 3 3 1 3 5 5 5 4 2 2 2 1 1 2 3 2 3 2 2 1 1 1 1 0
7 7 5 4 2 1 2 1 1 2 1 4 0 2 2 4 10 7 8 10 8 5 5 6 9 7 11 10 13 11 10 9 14 13 10 13 12 10 16 17 16 16 15 12 11 11 10 11 12 13 14 12 13 12 12 12 11 11 11 11 10 10 9 9 9 8 7 7 7 6 6 6 5 5 4 4 3 4 5 3 3 0 0 1 2 2 3 3 3 3 3 3 3 2 2 3 3
8 7 5 3 2 1 1 1 1 2 4 4 4 2 3 7 7 11 10 9 7 6 5 7 6 6 8 12 6 10 8 7 10 11 9 10 9 13 14 16 15 14 13 11 11 11 10 11 12 13 13 12 12 12 12 12 12 11 11 11 10 9 8 8 9 9 8 7 7 7 7 7 7 7 5 4 4 4 2 3 2 3 3 3 3 4 4 5 5 5 5 5 5 4 4 4 4
7 5 5 2 1 1 2 1 1 2 4 3 6 4 7 11 13 12 10 8 7 6 8 7 7 6 10 8 4 5 8 7 6 10 9 11 14 12 13 14 13 13 13 13 12 12 11 14 14 13 12 12 12 11 11 11 11 11 10 10 9 9 9 9 8 9 9 8 8 8 6 5 4 4 3 3 3 3 2 2 2 2 3 3 3 4 4 5 5 5 5 5 5 6 5 5 6
4 4 4 2 1 2 1 1 4 5 3 6 8 7 11 11 13 11 10 9 8 10 6 9 6 5 5 5 5 5 7 3 7 11 12 12 15 14 13 12 12 13 14 13 13 11 12 14 14 14 13 12 12 12 12 11 11 11 11 10 10 9 9 9 9 9 8 8 6 5 4 4 3 4 4 3 3 1 1 1 1 2 3 4 4 4 4 5 5 5 6 6 6 6 7 7 7
4 5 1 2 3 1 2 4 8 6 3 4 8 9 12 13 12 12 11 11 10 10 6 8 12 11 8 5 8 6 2 5 3 10 10 14 14 14 13 12 12 15 15 13 12 12 14 14 14 14 13 12 12 12 12 11 11 11 10 10 10 9 8 8 7 7 6 5 5 4 3 4 1 2 1 1 1 1 2 2 3 3 4 5 5 6 5 5 6 7 7 7 8 8 9 9 9
4 3 4 2 2 1 1 7 7 6 3 10 9 12 12 12 11 10 10 9 7 4 3 5 6 9 7 3 6 3 3 2 9 15 11 12 13 13 13 12 13 14 14 13 12 12 15 15 14 13 13 12 12 11 11 11 10 10 9 9 8 7 7 7 6 6 5 4 5 3 3 2 3 3 0 2 2 2 2 3 4 4 4 4 6 7 7 8 8 9 9 10 10 10 10 10 10
6 3 2 0 1 1 1 9 9 7 12 10 12 12 12 12 10 10 9 8 10 8 6 5 4 4 6 10 7 4 3 6 7 10 13 12 12 13 10 12 12 12 14 13 13 12 12 14 14 13 13 12 12 11 11 10 10 9 9 9 8 7 5 5 5 5 4 4 4 4 3 3 2 1 2 2 2 4 3 4 5 6 7 7 7 8 8 9 9 9 9 10 10 11 11 11 12
1 3 2 3 4 3 3 7 8 9 10 11 12 12 11 10 11 10 10 9 9 8 7 5 7 10 9 10 8 5 3 5 7 9 10 8 8 9 13 13 14 15 13 13 12 12 10 15 15 14 12 12 12 12 11 9 9 8 7 7 6 6 5 5 5 4 4 4 3 3 4 2 2 0 1 3 3 4 5 5 6 8 8 8 7 7 8 9 9 9 9 9 9 9 9 10 10
2 4 4 3 2 6 7 8 10 10 11 11 12 12 12 11 12 12 9 10 7 8 10 11 10 10 8 7 5 2 3 3 6 8 7 6 6 10 11 12 14 14 13 14 13 12 11 11 14 13 12 11 10 11 10 10 8 7 7 7 6 6 6 6 6 5 5 4 2 1 2 0 1 2 4 4 5 5 5 5 7 7 7 6 7 7 6 7 7 7 8 8 8 9 8 8 8
3 4 6 5 6 8 9 10 10 11 11 11 11 11 8 10 9 11 12 9 7 8 7 3 5 8 8 7 5 5 5 6 8 7 7 7 8 10 7 10 12 13 14 14 13 12 12 11 10 11 11 11 11 9 9 8 7 7 7 7 6 6 6 6 6 4 3 3 3 3 2 3 3 5 6 6 7 7 7 7 7 7 6 6 7 5 5 7 7 7 7 7 7 8 8 8 8
6 4 5 6 7 9 9 10 8 9 9 9 10 8 9 10 9 10 12 9 7 8 4 5 9 5 7 6 6 6 6 8 7 8 9 8 9 8 8 10 11 12 12 12 13 13 13 11 10 9 9 11 11 10 9 9 7 7 6 6 6 4 4 4 5 4 4 4 3 4 4 5 6 6 7 7 6 6 7 7 7 5 6 6 6 5 6 7 7 7 7 7 7 8 9 9 9
9 7 4 1 7 9 7 8 9 8 7 8 7 10 8 7 8 9 11 11 8 5 7 10 6 5 9 8 7 7 7 7 9 9 8 9 7 8 10 9 11 11 9 9 12 12 12 11 10 10 10 8 7 8 9 9 9 8 7 5 4 5 6 5 4 2 2 2 4 4 5 6 6 6 7 7 7 6 6 7 7 7 7 7 6 6 6 7 7 7 7 7 8 9 9 10 11
10 7 5 3 6 7 6 5 6 9 8 8 8 9 8 4 8 8 8 11 8 11 9 7 7 7 6 8 7 8 10 9 9 10 10 8 10 9 11 10 9 8 10 11 10 10 11 10 10 9 9 8 8 6 5 7 9 8 8 9 7 6 6 5 3 1 3 4 5 5 6 6 6 7 6 8 6 8 7 8 8 8 7 6 6 6 7 7 7 7 8 8 9 11 12 12 13
7 4 3 2 7 6 6 6 8 9 8 8 7 7 6 9 7 11 10 8 10 12 9 7 6 3 9 6 9 11 13 11 10 7 8 8 9 9 10 10 9 8 7 8 9 9 8 7 8 8 7 8 6 5 4 5 6 8 8 9 7 6 5 5 3 4 4 6 6 7 6 5 4 5 9 8 8 9 8 6 7 7 7 6 6 7 8 8 8 8 8 9 11 12 13 13 13
7 3 3 5 8 8 8 7 4 8 10 9 8 7 7 7 8 8 10 9 11 10 9 9 4 5 10 5 13 14 14 11 10 10 9 7 8 8 7 7 7 8 6 6 5 6 8 8 6 6 6 8 6 6 5 5 6 5 5 4 6 6 5 5 6 6 6 5 6 5 8 3 0 4 3 4 6 5 8 10 8 8 7 7 7 8 9 8 9 10 9 11 12 13 13 14 14
3 4 4 8 9 11 9 10 10 10 9 10 9 7 11 7 7 8 9 10 11 8 10 8 6 6 8 12 14 14 14 14 12 13 10 9 8 7 8 8 8 8 7 6 8 5 8 7 8 8 6 9 6 4 5 5 5 7 4 4 4 2 3 5 4 3 4 2 5 4 1 2 3 4 5 7 2 4 7 11 10 9 8 8 8 11 11 8 10 12 11 12 14 13 14 7 8
6 8 6 9 9 8 8 8 11 9 10 9 8 7 9 9 8 8 5 8 10 9 9 9 10 9 10 12 14 14 15 12 13 12 11 10 8 9 7 7 7 8 7 7 6 6 5 5 7 6 7 7 7 7 4 4 5 4 3 2 2 4 3 3 3 4 2 2 3 1 3 2 3 3 3 4 4 8 8 10 9 9 9 8 11 12 12 9 12 14 12 12 14 14 8 6 6
7 4 8 8 10 12 11 10 12 10 10 9 7 5 7 8 6 7 7 6 10 7 8 10 10 11 11 12 12 14 14 13 13 11 10 9 7 6 5 6 8 6 7 7 7 6 7 6 6 6 7 6 5 3 4 5 4 5 7 5 4 3 2 1 2 3 2 2 4 3 2 0 3 4 6 4 5 3 4 7 9 9 8 9 11 8 8 11 12 15 13 13 10 5 2 3 4
5 6 7 9 10 11 11 9 10 10 9 7 8 4 10 6 7 5 8 2 7 6 8 10 11 11 13 11 12 12 13 13 11 9 10 10 6 4 5 4 6 5 7 8 9 4 3 1 4 5 4 5 4 2 2 1 2 1 2 2 2 2 1 3 1 2 5 1 2 1 1 3 5 6 4 3 3 1 1 2 3 4 3 3 8 3 3 2 4 4 3 3 2 4 3 3 3
6 12 12 12 11 12 10 12 15 11 7 9 5 5 9 5 7 7 15 11 1 8 7 10 11 12 12 12 11 11 12 12 10 9 8 5 5 5 5 5 5 6 11 7 10 7 2 3 4 4 4 3 7 2 2 3 4 1 2 1 2 2 1 3 3 0 4 2 3 3 3 5 5 4 2 1 1 1 1 4 4 4 3 3 3 2 2 2 3 4 3 4 4 4 4 3 3
6 8 11 11 11 12 10 11 8 5 6 6 4 9 7 6 7 3 4 5 8 11 10 11 11 12 10 10 10 11 12 12 10 9 8 6 4 4 4 4 5 4 7 9 6 5 4 4 4 4 5 5 7 8 4 2 2 3 2 3 3 3 3 3 0 5 5 3 1 2 1 2 1 1 1 1 1 2 2 1 2 3 2 3 3 3 2 2 3 2 2 3 3 4 5 4 4
7 9 10 12 14 14 11 10 8 8 10 11 8 6 8 3 6 7 3 13 14 13 11 12 12 11 9 10 9 9 9 11 10 7 7 6 6 4 8 8 11 5 7 8 7 7 6 6 5 6 4 3 4 4 6 4 2 3 5 5 4 5 4 3 4 4 2 4 4 5 5 4 4 3 3 4 4 4 3 3 2 3 3 3 4 3 3 4 4 3 3 4 4 3 6 6 3
7 9 8 10 12 12 12 9 10 9 10 7 10 9 7 6 7 6 9 13 12 13 13 12 11 9 10 9 8 8 9 9 7 6 5 8 7 8 14 4 4 5 5 7 6 6 6 6 6 5 5 4 6 5 5 3 1 1 3 1 3 6 4 4 6 1 3 5 5 5 5 5 4 5 4 4 4 4 3 4 3 4 3 4 3 4 4 4 4 3 4 4 4 5 4 4 4
7 6 7 10 11 12 10 10 9 9 6 3 2 7 4 8 4 3 10 12 12 13 13 10 10 10 10 9 8 8 4 9 4 5 5 5 6 12 9 8 10 6 4 5 6 5 7 7 7 7 6 7 5 5 5 4 3 3 2 2 2 3 4 5 4 4 3 6 5 4 4 4 4 4 4 4 3 3 4 4 3 3 3 3 5 4 4 4 4 3 3 3 4 4 4 4 4
2 7 6 8 9 10 5 9 9 8 8 5 3 2 3 6 2 5 9 13 14 12 13 11 10 10 10 10 8 9 4 7 8 4 6 5 3 12 9 10 3 4 7 7 6 6 6 7 8 7 7 6 5 6 6 6 5 4 4 3 4 4 3 2 4 5 6 5 5 5 5 4 4 4 4 3 3 3 3 3 2 3 3 4 4 4 4 3 4 3 3 3 4 4 5 5 4
4 5 12 22 2 10 10 5 9 10 4 6 2 3 5 4 4 0 10 12 13 13 12 12 10 9 9 9 8 6 7 9 5 7 6 7 5 7 12 8 7 7 6 7 6 6 7 8 7 7 6 6 6 5 7 6 5 4 5 4 4 4 4 3 5 5 6 5 5 5 4 4 4 4 4 4 4 2 2 3 2 3 4 3 3 3 4 4 2 4 4 3 4 4 5 5 6
6 9 19 13 18 7 6 5 7 11 6 6 7 4 2 2 3 4 9 9 11 12 16 11 11 10 9 9 10 9 8 8 9 4 1 5 8 9 10 8 7 7 4 5 7 8 9 8 7 7 7 7 6 6 5 6 5 5 4 4 4 4 3 4 5 5 5 5 5 5 5 5 5 4 4 4 4 2 2 2 3 5 4 4 3 5 6 5 3 4 4 4 5 6 6 4 4
6 7 12 9 6 3 6 7 4 7 4 11 6 1 3 7 6 6 9 7 9 11 12 10 10 10 9 10 8 8 9 11 10 9 8 10 10 6 8 9 7 6 6 6 7 8 7 6 6 6 7 8 7 5 5 5 5 4 4 4 4 3 4 4 4 4 6 6 5 5 5 5 4 4 4 5 4 3 3 4 5 5 4 4 5 5 5 4 5 4 5 5 5 6 5 6 6
4 14 8 4 4 3 3 3 5 7 10 12 10 2 4 8 10 8 6 8 10 9 9 8 11 10 9 9 9 9 11 10 12 15 15 18 10 7 7 9 10 8 7 8 9 8 8 6 6 6 8 7 7 6 6 6 5 5 4 4 3 3 3 4 5 4 4 6 6 5 5 4 5 5 4 4 4 3 3 4 5 4 4 5 5 4 5 5 5 4 5 5 5 5 6 7 8
13 8 10 7 2 1 4 5 12 8 9 10 9 5 1 11 11 12 10 8 9 10 7 7 10 10 9 10 10 11 11 12 14 18 21 17 9 10 9 10 8 8 9 9 9 8 8 7 6 8 9 8 7 7 5 5 5 4 3 4 3 3 4 4 4 4 5 5 6 5 5 5 5 5 5 4 4 4 4 4 5 5 4 4 5 6 3 4 5 4 4 4 5 6 6 7 4
8 7 6 7 7 6 2 8 11 14 7 11 9 6 4 10 9 13 12 12 11 11 12 7 11 12 11 10 9 9 11 13 14 15 12 13 7 11 10 10 10 9 9 10 9 9 8 8 7 8 9 8 8 8 7 6 5 5 4 4 4 4 3 4 4 5 6 6 5 5 5 5 5 4 5 5 4 3 4 5 4 5 4 4 5 5 5 5 5 5 5 4 4 5 6 8 6
4 8 5 9 9 6 6 11 15 10 16 7 7 6 5 1 13 12 13 14 13 11 12 12 12 11 11 10 11 11 11 12 14 13 14 11 6 8 10 10 11 11 9 9 10 9 10 8 7 8 8 9 7 6 6 6 5 5 4 3 3 5 5 4 4 5 6 5 5 5 5 4 4 4 4 4 5 5 4 5 4 5 4 4 5 4 6 5 5 5 4 4 4 5 5 5 6
7 7 5 7 7 18 10 7 6 6 11 8 8 9 5 6 7 15 16 14 14 14 12 10 11 15 10 11 10 11 11 12 13 13 15 12 11 10 9 12 12 11 9 10 9 9 9 8 8 8 8 8 7 7 6 6 6 4 4 5 5 4 4 4 5 6 6 5 6 5 4 4 4 5 4 4 4 5 4 5 4 6 5 5 5 4 4 5 5 6 4 5 6 4 2 6 5
10 8 6 5 6 10 11 4 5 8 5 9 15 10 14 13 3 18 16 13 15 11 9 8 6 5 7 12 10 11 11 12 10 14 15 13 11 10 8 11 11 10 10 10 10 9 9 8 8 8 8 8 8 7 6 6 6 5 5 5 5 4 4 3 5 7 5 5 5 4 4 4 4 4 4 5 4 4 4 4 4 5 5 4 4 3 3 4 5 6 5 6 7 4 4 4 5
15 7 6 9 10 8 5 10 7 12 7 8 7 12 5 2 7 18 14 15 13 9 9 10 5 3 3 5 12 12 12 9 7 12 14 13 15 11 9 10 11 11 11 12 11 10 10 10 10 10 8 8 7 7 6 6 6 4 4 5 5 5 5 4 7 6 6 5 5 4 4 4 4 4 3 3 5 6 5 4 3 4 4 4 3 4 2 3 4 5 5 4 7 6 4 5 6
16 11 10 9 9 9 5 5 6 10 9 2 3 9 11 6 2 24 16 17 13 14 11 16 15 10 8 12 11 8 10 10 14 12 13 15 11 13 11 9 11 12 12 13 13 12 11 10 11 10 8 8 7 6 6 6 5 5 4 3 4 5 5 5 6 6 6 6 5 5 4 4 3 3 3 4 6 6 5 5 4 5 4 3 3 5 2 4 4 5 5 5 4 7 2 6 6
10 9 11 11 9 8 14 7 7 4 9 8 8 10 8 9 2 23 19 15 15 11 12 12 21 20 15 11 9 8 9 10 10 13 15 13 15 15 11 10 9 11 12 13 13 13 12 10 8 9 9 9 8 7 6 5 5 4 4 4 4 4 7 7 8 7 6 6 7 6 5 5 4 4 4 4 6 6 5 4 4 4 3 4 3 4 3 5 4 6 7 6 6 7 3 4 5
10 10 9 10 9 10 7 9 5 9 8 7 11 14 5 6 3 15 17 18 14 13 13 14 15 19 18 16 14 9 11 12 12 12 15 14 14 13 12 10 9 10 11 12 12 13 10 9 9 9 9 8 7 7 6 7 6 5 4 4 2 6 6 7 7 5 5 8 7 6 4 4 5 5 6 6 6 5 4 3 3 3 3 4 4 4 5 7 4 5 7 6 6 8 8 4 5
7 10 11 11 11 11 11 9 12 9 14 10 9 8 8 3 8 4 16 16 14 13 13 13 12 13 18 13 14 14 14 11 13 12 13 13 15 15 13 12 11 12 11 13 12 11 8 11 10 10 9 9 8 8 7 6 6 5 5 8 7 7 6 4 5 5 4 5 6 6 4 3 5 5 5 6 5 4 3 3 3 2 2 2 3 4 5 7 7 6 7 6 7 7 8 6 5
10 12 13 15 17 16 16 13 11 8 11 9 9 8 8 5 5 5 16 12 13 15 15 15 12 12 16 17 15 14 13 14 12 11 12 15 14 13 14 14 14 13 12 11 11 12 11 11 12 9 8 8 10 10 8 7 6 6 5 5 5 4 4 5 4 5 6 6 6 5 4 4 4 4 3 5 5 4 3 3 4 2 3 3 5 5 7 5 7 7 7 6 7 7 7 6 8
11 9 11 13 12 12 15 18 14 8 10 8 5 9 8 5 7 2 13 13 18 16 18 15 11 9 13 14 15 13 12 13 13 15 13 15 15 13 13 15 15 14 12 11 12 12 12 11 12 11 9 8 8 9 9 7 7 6 6 7 6 5 5 4 8 7 7 6 5 5 5 4 4 4 4 4 3 3 3 3 4 4 4 4 5 5 6 8 8 8 6 6 6 5 7 7 7
11 10 13 14 14 16 15 14 11 10 11 14 14 11 11 6 5 4 13 9 10 17 14 13 12 14 17 16 18 15 15 15 12 16 19 16 16 17 18 16 15 14 13 11 11 11 12 11 12 11 9 8 8 9 9 7 7 7 6 6 6 6 6 6 7 7 7 4 5 6 5 4 3 3 4 3 3 3 3 3 4 5 5 4 4 5 6 6 6 6 7 7 6 5 5 6 5
11 13 14 14 13 14 15 11 10 10 12 10 11 13 10 7 4 5 8 8 3 8 18 18 16 17 17 17 16 15 18 17 18 16 18 17 17 17 17 15 15 15 13 13 12 11 12 13 12 11 10 9 9 11 10 9 6 6 7 6 5 4 8 6 6 6 4 5 5 4 5 4 4 4 3 3 2 2 2 3 3 4 5 6 4 4 4 6 7 6 6 7 6 6 6 5 5
11 14 13 9 10 12 13 12 9 10 9 11 11 12 10 10 9 7 4 4 4 4 7 14 18 15 13 15 14 17 16 17 19 13 15 16 15 16 15 15 14 14 14 11 11 10 10 11 12 12 11 9 10 11 10 9 7 7 6 6 5 6 5 6 6 6 6 4 4 3 4 6 6 6 5 3 3 3 3 3 5 6 6 7 7 7 6 4 5 5 6 7 6 5 5 5 6
9 10 12 12 13 11 10 10 8 8 10 10 14 14 11 10 7 8 7 5 7 7 7 14 17 19 19 16 16 16 15 15 15 16 14 13 15 16 15 16 14 13 13 13 13 12 11 11 13 13 12 10 11 11 11 10 8 7 6 6 6 6 6 8 7 7 5 4 4 5 3 2 3 4 5 3 4 3 3 4 7 7 7 5 6 6 6 7 6 5 6 6 5 5 4 4 5
10 8 9 9 10 10 10 9 8 9 10 11 14 13 13 11 5 6 3 4 7 10 17 12 17 18 16 15 16 15 15 14 16 14 14 16 13 13 15 16 14 15 14 14 13 12 12 12 12 12 13 11 11 11 10 9 8 6 6 7 7 5 6 7 7 7 5 5 4 4 3 2 4 4 3 3 5 6 4 5 6 7 5 5 5 4 5 6 6 5 3 4 4 3 3 2 3
9 8 9 9 6 5 7 6 9 9 10 11 13 14 10 7 7 13 12 9 9 7 13 8 8 17 16 18 17 12 11 17 16 16 15 15 16 17 14 15 15 16 14 15 14 12 12 12 13 13 12 11 11 11 10 9 8 7 7 6 6 6 5 6 6 6 5 5 5 4 2 3 2 4 5 6 6 8 5 5 6 5 4 3 2 3 4 4 4 4 5 4 4 4 3 3 2
11 9 8 8 7 8 9 8 7 9 11 9 11 6 5 7 7 5 4 13 16 15 13 11 10 9 3 14 12 10 12 13 14 15 14 15 15 14 15 15 14 14 14 14 13 12 11 11 12 13 12 11 11 10 10 10 9 6 6 6 6 5 5 6 5 5 5 5 5 4 4 4 3 4 7 7 7 8 7 7 6 5 4 3 4 3 5 4 4 4 4 4 4 2 4 3 4
9 10 9 9 8 7 10 7 9 9 8 10 9 4 4 8 3 11 17 19 15 14 13 12 13 7 8 7 7 10 10 11 11 12 13 15 14 15 15 15 14 13 14 14 12 12 12 12 14 14 13 12 12 11 10 10 8 8 6 5 6 4 4 5 5 3 5 7 4 6 4 4 6 6 6 4 4 5 6 5 6 5 4 4 3 4 6 4 3 4 4 3 3 4 4 6 5
13 13 8 8 10 7 10 9 12 12 12 11 7 7 2 9 7 13 4 12 14 15 11 13 9 7 5 4 6 10 11 12 13 14 12 11 12 7 8 13 14 14 15 12 14 12 13 12 13 14 14 13 13 12 10 9 8 7 7 6 7 6 5 3 5 5 5 3 3 4 2 6 6 6 3 3 4 3 4 6 6 5 3 4 4 4 4 2 3 3 3 4 4 5 3 6 5
5 10 11 11 7 7 9 10 13 14 11 12 7 8 10 2 13 16 16 13 13 10 12 10 9 5 2 3 5 5 8 13 12 12 12 13 11 12 9 13 14 14 14 14 14 14 13 13 15 14 13 13 13 12 11 10 9 8 9 7 6 7 8 8 7 6 7 4 4 3 4 6 7 4 6 5 5 4 5 6 6 6 4 3 3 2 2 2 3 3 3 3 5 6 4 5 6
10 9 7 7 6 8 7 8 6 8 9 7 4 7 6 1 2 3 10 11 8 11 9 10 7 6 4 3 2 6 8 9 10 10 13 13 15 16 15 11 15 15 16 16 15 14 13 13 17 16 15 16 14 13 12 11 10 10 10 10 9 9 8 8 8 6 9 4 3 3 6 5 6 6 5 6 5 6 3 5 4 3 4 3 3 3 1 2 2 5 4 4 3 3 4 4 5
11 13 6 6 4 10 8 5 7 7 8 7 9 5 3 6 5 7 12 13 9 8 6 7 9 9 7 3 2 5 9 8 8 10 12 13 13 16 12 15 14 15 15 17 14 13 13 13 14 17 16 15 14 12 11 9 9 7 8 9 11 8 7 4 7 9 5 5 5 6 4 5 6 6 5 5 5 5 4 5 4 6 4 4 4 3 3 4 6 4 5 5 4 3 3 4 4
13 13 14 9 8 8 9 7 5 3 7 6 5 4 3 9 11 16 15 9 9 6 8 8 8 8 4 2 3 4 5 5 6 7 11 11 15 14 16 15 16 14 14 15 15 14 15 14 14 15 13 13 13 12 11 10 10 9 10 9 8 3 6 9 8 8 7 6 7 6 6 7 7 5 4 5 5 3 6 6 6 5 6 5 5 6 3 2 2 3 3 4 4 2 2 3 4
11 9 9 8 8 7 9 9 10 8 6 5 6 4 8 10 11 14 11 8 8 8 7 6 6 5 3 4 5 5 6 5 5 7 9 11 12 13 12 11 12 11 10 12 13 12 13 14 16 16 15 16 14 13 11 10 8 10 10 7 3 7 9 6 9 9 7 7 7 6 5 6 5 4 3 6 4 3 5 6 6 4 5 4 4 3 3 2 2 2 5 3 4 1 1 3 2
10 10 8 8 10 10 8 10 7 8 6 6 7 7 7 11 9 9 8 6 7 9 8 3 5 3 4 5 5 6 7 8 7 8 8 10 10 10 11 9 10 10 8 9 10 11 13 14 13 12 16 14 14 12 9 9 9 9 10 10 5 7 5 5 7 5 7 9 7 5 6 6 7 3 4 5 6 4 2 2 7 7 5 4 3 5 5 2 2 3 3 3 4 3 1 3 2
Wind_Direction
155 155 178 108 107 59 74 19 263 95 283 61 345 292 68 325 92 118 109 181 71 24 354 68 51 32 39 83 72 70 53 51 34 62 110 128 153 129 125 127 128 130 128 129 130 133 129 129 131 129 131 131 128 128 131 130 129 125 122 122 121 116 116 116 108 102 100 101 103 104 96 92 91 85 76 44 92 103 97 94 90 90 73 72 66 46 60 46 45 73 25 63 83 50 288 116 98
162 162 133 109 102 121 195 130 163 212 269 74 5 23 110 156 141 103 118 70 83 159 223 154 114 100 53 93 82 77 56 60 69 86 111 124 116 123 131 135 134 130 132 135 135 131 127 133 138 141 134 131 131 131 132 130 125 120 121 121 123 124 123 116 112 117 114 111 106 104 113 121 125 106 105 114 121 97 93 90 94 96 91 58 7 359 1 355 339 22 355 323 358 324 342 262 241
163 151 102 100 89 64 119 190 319 115 269 90 109 84 216 117 104 125 99 106 131 158 180 89 46 21 74 67 61 53 85 86 95 99 105 122 126 140 145 141 130 133 138 138 128 127 128 130 138 134 134 135 132 132 130 128 127 128 128 128 127 128 127 128 125 119 119 116 122 140 151 153 158 149 156 173 101 85 81 73 72 64 287 46 336 329 326 341 318 312 334 317 308 310 303 304 270
165 159 139 188 112 194 333 143 239 15 125 112 109 20 134 112 109 102 106 125 143 138 115 66 49 359 65 62 58 87 89 97 100 115 127 145 127 149 148 127 131 139 140 125 129 127 127 134 131 133 134 133 134 132 132 131 130 130 132 131 131 132 128 133 136 140 141 143 153 163 167 175 185 172 139 111 95 95 38 65 8 339 347 334 333 331 319 325 323 313 317 322 309 306 305 300 297
162 121 133 107 306 101 329 344 28 222 105 169 110 167 129 112 112 116 120 130 122 103 96 118 90 59 70 68 347 79 70 86 120 135 116 117 144 131 118 133 138 131 123 122 125 126 130 131 132 132 132 133 131 132 133 136 135 133 131 132 137 135 135 136 136 140 149 150 164 174 175 129 103 95 102 63 74 40 62 15 344 309 315 309 308 317 314 308 318 315 307 311 307 297 298 291 284
111 117 41 44 25 164 190 50 90 69 26 94 120 118 109 119 117 118 126 122 96 61 51 81 93 119 74 46 23 68 12 69 99 97 122 127 115 125 135 139 129 125 121 122 122 124 137 135 134 133 134 133 135 136 137 137 132 135 133 135 136 139 144 147 158 155 146 151 134 113 111 121 87 60 34 80 10 65 40 290 310 293 306 310 308 304 302 302 304 302 297 296 303 298 290 288 283
148 84 91 29 282 187 324 88 75 89 334 95 122 126 120 121 118 120 123 125 92 70 40 88 111 115 97 107 87 48 280 212 281 111 110 117 124 130 142 132 126 115 117 121 128 132 133 137 135 133 134 137 137 138 140 136 138 137 137 138 140 141 142 138 126 116 119 128 118 112 123 109 150 61 103 352 100 318 297 303 289 303 297 313 320 322 325 323 307 316 316 309 308 309 305 298 295
195 147 149 178 20 277 132 98 85 86 236 117 122 117 120 124 128 126 132 128 122 91 53 85 92 87 89 259 107 17 345 96 81 97 105 121 134 144 126 119 116 117 122 124 124 119 135 135 133 134 135 137 138 137 136 133 135 138 136 138 131 128 129 140 131 109 121 116 118 126 113 108 112 172 184 159 236 256 275 271 296 284 313 314 313 308 311 307 305 303 307 302 298 297 294 293 291
189 207 63 260 164 4 8 89 107 98 106 100 100 109 124 128 125 127 126 109 103 105 111 128 147 98 105 104 92 85 43 100 112 114 124 137 136 122 121 129 127 119 115 115 117 129 135 134 132 133 136 137 136 127 127 132 133 142 142 138 138 131 128 123 123 131 117 128 133 136 152 138 138 189 213 245 291 292 284 286 294 294 297 299 299 300 295 295 296 290 289 290 286 284 286 285 282
1 159 202 216 89 151 146 93 94 113 112 108 116 123 123 129 126 116 118 123 106 110 81 92 101 108 124 107 117 139 98 98 126 125 123 107 108 126 132 127 122 122 123 125 128 131 134 140 141 140 140 136 137 136 136 135 139 135 126 128 126 127 130 131 138 140 139 137 143 181 164 195 192 217 314 301 292 272 268 276 294 306 305 299 297 296 292 291 290 293 288 289 286 282 280 279 277
204 200 199 270 220 147 96 91 99 106 104 114 113 125 130 138 129 126 115 102 112 107 109 106 102 115 117 103 79 67 164 145 101 91 81 95 109 121 120 123 117 122 126 131 133 131 138 139 141 139 136 142 142 138 139 133 128 128 132 138 136 144 147 149 140 147 166 167 141 100 90 65 231 264 269 271 278 277 280 289 288 281 285 290 284 285 306 294 282 277 279 282 288 284 282 279 272
232 217 202 254 99 80 94 112 108 101 107 115 114 129 150 124 122 124 124 119 143 136 134 206 121 146 115 125 126 159 171 119 102 109 120 128 113 98 96 103 120 122 128 129 130 138 136 136 143 144 140 147 143 141 141 135 139 138 143 142 148 153 157 157 154 147 128 119 160 168 199 233 258 260 263 268 271 286 288 281 277 280 283 281 285 288 278 276 274 283 287 283 283 283 283 282 282
238 219 242 240 70 79 105 105 107 107 107 107 125 123 126 142 133 134 117 125 135 135 114 118 141 201 124 122 125 148 162 125 127 135 152 115 103 114 115 124 124 115 121 130 135 134 135 146 142 149 148 144 143 147 146 140 145 148 141 143 166 159 141 115 127 139 157 177 189 224 238 250 259 268 271 278 280 270 265 271 270 279 281 275 269 262 264 277 284 279 278 279 274 283 278 273 272
220 226 218 348 84 83 85 112 135 114 109 119 120 143 145 137 140 126 127 121 126 145 122 131 152 134 105 116 146 162 153 153 142 165 149 121 133 127 126 112 105 121 128 132 129 138 143 144 150 148 148 153 148 150 150 153 151 152 153 138 113 120 136 145 153 169 195 225 240 250 248 255 265 277 277 270 269 266 270 265 266 257 248 245 240 254 260 265 273 267 272 274 271 267 269 263 260
229 247 219 267 83 104 86 94 104 104 104 126 140 138 128 105 130 97 117 130 131 134 132 149 148 186 152 170 162 168 160 166 162 179 137 149 145 139 125 120 120 113 128 132 139 139 147 141 147 138 155 165 152 161 156 153 159 160 148 132 143 159 141 148 167 179 248 238 246 248 249 258 271 275 278 275 266 268 252 255 248 241 236 241 247 257 266 266 266 265 259 265 264 256 256 258 256
213 260 271 20 63 56 92 93 112 109 117 129 144 119 113 118 124 130 126 135 126 124 149 142 156 261 140 190 155 149 155 162 173 150 124 154 144 129 126 134 135 133 129 139 139 151 132 137 132 147 160 150 149 132 131 146 153 152 152 159 159 154 163 168 192 212 227 241 243 255 262 255 253 266 249 250 253 241 233 236 228 221 239 242 250 252 253 252 250 252 251 257 257 260 259 262 260
221 211 274 54 66 44 35 56 69 88 120 128 158 140 125 123 116 118 144 132 139 126 138 124 186 192 162 169 140 139 155 163 163 137 155 154 141 145 139 145 145 141 129 136 137 131 128 121 135 122 136 117 106 117 120 117 123 153 149 177 161 169 183 196 205 223 239 262 260 269 260 285 154 249 281 248 251 214 227 216 215 224 232 238 239 242 238 238 246 246 251 252 257 260 260 258 260
28 231 61 55 53 58 69 75 78 108 121 134 149 150 114 125 134 121 149 134 115 136 120 120 96 77 99 116 136 147 155 163 148 157 163 150 168 153 160 152 157 137 145 148 132 133 128 134 119 131 135 111 126 135 140 150 161 148 163 180 190 168 241 227 242 256 252 258 284 266 268 251 201 213 199 230 159 200 226 209 216 215 220 221 231 236 234 228 245 247 243 249 257 259 262 259 256
241 65 46 62 59 75 76 93 107 115 119 144 125 166 115 125 158 121 118 143 117 131 128 130 114 109 115 133 143 158 159 155 160 168 159 170 181 159 172 154 149 137 148 152 131 123 104 144 125 142 122 130 150 147 155 143 158 171 154 196 171 212 247 289 328 269 248 198 326 141 251 273 236 246 240 222 203 206 223 216 219 219 213 216 234 243 242 220 238 255 242 246 258 266 271 251 243
48 68 85 78 65 64 67 76 90 103 130 121 131 129 132 117 150 127 141 141 126 141 146 136 141 135 144 144 157 161 156 161 169 171 163 185 199 159 148 155 127 145 152 120 94 64 33 53 81 110 128 143 124 130 146 159 165 174 172 180 170 172 205 267 241 265 320 100 194 211 243 64 321 270 257 228 241 248 246 235 223 225 221 220 241 255 297 200 233 254 255 241 257 268 295 335 346
5 84 60 69 93 99 84 83 101 116 97 108 94 149 114 160 114 152 109 93 142 173 161 151 148 151 143 156 161 159 158 165 176 169 166 198 166 167 132 136 142 137 92 75 96 78 237 104 80 105 124 126 76 119 156 336 150 105 92 78 54 44 113 251 279 26 144 157 179 218 202 182 216 248 219 208 201 223 23 188 206 212 201 209 221 343 320 8 244 316 2 226 326 338 325 338 328
82 43 73 96 92 82 74 56 61 74 90 86 115 161 100 137 131 150 123 171 249 159 163 135 142 148 150 156 163 158 166 164 173 166 172 175 145 143 128 124 126 136 112 136 120 174 148 117 119 115 89 90 144 264 145 196 101 56 79 93 84 35 59 18 345 348 322 156 196 204 211 242 204 197 103 160 309 204 149 31 2 350 30 337 44 305 349 320 327 338 349 5 354 311 330 306 299
79 90 91 71 71 85 77 76 94 111 108 98 157 79 127 200 109 121 83 61 86 92 113 129 142 143 152 154 162 160 173 165 167 168 165 137 177 122 128 69 135 140 118 131 144 129 160 147 146 132 138 174 158 173 144 128 146 162 157 161 150 141 125 113 332 232 198 162 90 80 35 301 1 35 55 300 13 62 70 127 6 295 75 303 59 305 313 7 303 324 341 11 320 320 320 307 297
47 86 73 73 75 71 69 75 55 43 45 44 48 215 61 237 152 94 78 79 73 87 108 125 128 145 150 161 160 171 174 163 167 167 159 142 94 148 77 43 25 339 141 141 134 145 165 156 147 145 156 216 142 166 140 152 150 175 170 149 143 142 143 145 203 235 164 77 52 35 6 355 358 30 29 17 6 35 359 31 348 350 20 342 17 328 12 6 325 333 12 350 335 331 322 324 321
119 112 91 106 103 95 90 95 78 69 52 16 28 329 90 19 73 160 97 97 101 101 100 115 133 142 157 155 165 167 186 148 165 178 141 135 134 83 65 309 191 190 161 128 136 147 150 156 150 169 164 202 175 179 134 119 137 117 103 152 159 146 166 179 209 160 114 102 62 41 22 10 7 23 18 9 356 29 349 18 345 25 324 40 353 21 10 346 343 352 18 343 339 333 323 310 349
85 76 125 114 104 99 118 103 107 105 81 37 98 22 7 49 356 151 115 119 125 127 131 142 148 152 156 158 167 161 206 137 146 184 141 134 134 89 128 215 204 159 84 139 135 150 166 165 161 171 185 184 174 135 120 131 143 159 172 158 206 153 197 198 142 129 81 67 60 43 35 21 13 34 12 360 5 13 22 4 352 6 356 23 34 22 347 351 322 16 7 343 339 324 310 308 301
98 97 68 99 95 113 111 102 101 93 89 110 76 145 9 46 315 118 136 126 133 140 132 145 150 165 157 156 165 165 182 132 162 156 94 124 176 141 182 203 170 111 134 160 158 167 170 174 163 174 173 175 177 147 143 152 167 168 168 186 197 181 106 98 109 77 72 60 69 52 34 28 21 37 10 8 344 22 39 351 359 355 34 11 51 14 330 331 312 20 336 357 315 303 291 286 289
53 77 59 8 306 113 130 111 115 96 102 112 130 48 342 7 266 126 125 131 140 144 146 155 166 159 154 159 161 150 181 149 152 121 157 193 183 194 175 197 175 168 156 150 160 164 164 166 165 161 166 174 168 153 142 147 162 172 172 181 140 109 162 125 90 85 82 74 53 63 42 37 30 32 14 9 336 44 41 358 5 21 45 343 73 18 322 301 333 16 326 0 309 307 303 282 266
120 112 62 324 341 54 61 104 92 129 151 150 125 140 1 290 242 28 129 136 156 154 153 159 156 160 165 159 160 181 173 155 127 119 246 235 211 212 185 180 168 153 155 162 155 165 163 165 163 167 169 161 160 151 148 145 159 154 148 126 114 127 116 89 80 93 99 83 68 60 52 39 30 31 14 359 342 359 89 20 31 38 18 339 38 21 338 317 17 10 329 5 341 315 295 300 316
217 109 136 167 275 290 55 345 107 138 116 145 167 230 142 190 238 246 133 169 163 167 159 157 160 159 166 155 165 185 169 160 149 134 219 225 213 200 161 169 162 151 148 175 171 173 170 169 163 161 160 162 154 151 155 153 153 151 135 122 127 134 116 100 106 110 109 101 77 59 55 41 36 28 20 355 336 334 43 49 41 40 347 11 13 17 326 337 22 354 359 356 335 315 322 324 300
305 98 100 171 166 190 202 274 157 171 168 171 191 340 158 167 197 218 165 178 170 166 143 169 158 168 169 156 175 187 182 166 173 161 207 221 196 166 159 151 155 157 163 168 176 174 173 162 163 156 162 152 157 150 159 145 157 143 138 130 130 134 128 124 119 114 96 89 84 67 57 49 40 30 22 349 340 354 26 62 42 32 360 20 7 342 315 17 13 354 5 340 336 331 334 305 292
338 66 332 306 267 156 222 202 246 208 172 197 204 256 69 174 196 215 173 184 179 150 162 179 176 154 177 169 193 192 187 182 183 187 191 199 170 131 169 158 149 162 169 171 173 166 163 159 177 154 157 155 154 150 148 147 139 115 110 118 110 73 72 82 86 70 76 78 74 69 59 49 38 30 18 2 349 23 17 42 53 3 32 12 7 322 337 34 11 351 347 348 338 334 312 303 324
203 129 210 237 192 144 319 242 247 243 188 205 213 307 173 176 203 192 165 186 178 165 175 190 178 168 178 172 182 201 204 178 197 195 190 187 178 147 162 160 162 162 170 170 163 163 156 158 173 152 155 158 146 148 147 138 126 128 129 115 130 140 113 77 68 90 83 74 62 58 54 54 36 30 23 7 345 28 43 27 50 1 32 6 9 331 2 33 14 350 332 354 338 317 314 335 350
230 147 187 236 170 187 188 243 233 220 170 198 216 243 251 108 195 178 166 188 172 184 183 188 176 173 174 178 187 198 210 189 197 209 170 174 180 166 152 161 163 169 170 167 159 159 158 156 172 153 158 145 141 143 147 143 139 135 132 136 86 80 96 104 102 81 81 79 74 64 59 44 46 28 29 21 11 3 52 44 23 2 37 14 359 359 10 23 3 338 334 340 326 301 301 346 347
196 212 207 234 180 180 209 218 133 248 211 225 202 245 281 226 209 165 169 184 188 181 192 188 178 169 175 175 187 206 216 201 192 215 175 171 182 188 159 155 165 167 169 164 157 162 162 163 153 152 148 139 148 149 149 145 143 142 132 118 115 108 76 89 83 83 76 70 75 78 68 56 44 38 22 33 31 6 26 46 22 9 359 40 359 17 14 6 357 326 2 330 307 287 304 10 354
302 245 273 305 253 174 214 234 143 248 185 196 220 222 210 226 251 151 165 181 188 179 210 98 76 80 170 168 200 214 206 212 204 204 202 177 173 184 178 165 165 168 161 160 162 167 164 155 146 148 149 152 153 151 153 150 155 153 140 132 137 123 123 98 91 89 79 77 78 68 71 58 47 49 31 31 18 22 26 52 33 26 351 30 2 6 25 8 358 334 1 329 313 320 38 6 2
248 305 331 289 298 292 191 185 175 231 246 282 357 317 273 224 236 155 166 181 180 174 179 123 139 101 336 250 192 207 201 203 218 207 196 209 163 182 181 170 163 162 161 160 165 171 168 156 155 158 155 161 163 156 162 160 158 151 148 151 134 134 115 115 99 89 87 81 66 68 60 72 65 47 40 50 40 27 11 21 38 50 8 9 351 345 6 28 7 344 342 321 336 323 47 10 14
339 306 291 290 294 294 310 334 216 233 257 290 336 299 295 290 13 149 172 172 173 175 183 152 159 160 192 245 220 201 184 171 196 212 217 204 188 165 183 177 162 162 163 163 168 172 165 163 157 157 156 162 169 161 159 160 157 157 154 153 135 128 133 150 111 106 100 91 79 57 46 25 69 63 49 54 50 38 12 5 20 37 19 345 358 335 349 49 5 12 339 340 356 322 46 35 21
305 315 311 311 293 317 304 249 239 312 319 296 305 290 288 280 37 159 157 173 171 180 182 175 160 168 187 201 182 217 193 169 197 196 204 201 198 174 177 177 174 168 165 165 168 164 166 161 166 157 163 165 164 161 161 151 166 147 162 134 135 101 67 73 93 95 98 96 85 64 44 18 15 46 40 55 62 40 22 7 9 41 13 328 3 346 335 59 6 22 351 6 352 334 82 72 49
280 288 272 263 290 278 284 292 257 237 270 307 271 266 264 264 207 168 153 168 177 182 187 199 184 172 166 170 186 197 194 176 184 189 190 201 203 192 184 174 177 172 168 164 168 171 162 161 165 161 164 166 160 157 170 153 148 146 131 106 55 99 114 103 101 118 140 111 87 77 61 49 28 33 34 46 63 53 27 13 349 51 21 339 349 3 320 59 9 32 3 9 15 4 359 41 55
271 247 247 252 261 270 270 278 299 285 234 232 278 303 311 2 327 87 147 162 177 185 186 206 200 175 157 177 179 194 190 191 176 183 186 199 199 199 190 179 176 184 177 171 172 169 169 165 166 165 166 163 161 163 159 138 130 130 123 87 89 91 99 119 141 134 93 92 95 81 63 57 72 45 36 55 45 60 24 4 341 43 67 353 336 13 340 57 34 20 18 8 32 16 352 349 53
281 289 296 305 308 313 315 307 277 281 277 252 277 295 287 288 256 225 154 169 189 181 192 205 185 172 162 168 183 180 184 186 176 185 197 188 200 191 182 183 183 186 183 177 170 170 170 173 167 167 170 160 169 161 147 136 134 123 126 111 111 116 125 163 209 125 121 86 96 100 82 45 62 71 60 53 55 51 39 3 344 17 22 28 25 30 7 41 49 30 19 19 24 31 358 3 15
289 287 297 293 295 289 274 281 310 323 315 341 316 283 295 286 267 171 148 175 178 183 195 193 183 182 180 172 176 186 183 173 179 179 202 184 192 183 191 187 185 187 181 179 170 174 170 167 171 165 167 165 160 146 139 140 132 135 143 142 150 147 175 103 90 84 92 101 88 86 80 63 57 80 56 65 63 55 55 5 360 13 42 33 37 36 38 33 37 27 19 18 27 31 25 11 15
264 276 278 287 286 279 287 314 305 295 291 284 254 237 262 275 277 294 170 209 199 177 201 192 178 191 185 187 174 178 185 182 187 187 187 187 175 184 191 190 189 188 177 176 172 177 168 164 169 166 166 165 149 141 147 152 158 153 160 171 157 177 132 110 94 87 83 107 127 124 101 99 101 80 86 63 80 79 66 60 34 22 12 35 55 45 52 51 42 37 20 17 10 28 43 19 5
293 303 295 291 302 309 307 294 282 283 303 300 302 301 287 272 295 296 285 262 150 197 196 187 179 190 181 190 192 169 171 179 190 189 188 174 179 183 184 187 188 179 173 176 176 174 168 162 168 165 164 155 142 150 157 159 159 139 161 162 173 100 117 113 108 106 113 94 88 70 112 115 104 78 66 91 101 112 121 105 80 67 35 10 17 58 69 60 56 56 38 26 14 28 27 24 10
271 269 271 285 278 271 275 285 285 286 279 278 289 291 288 279 261 235 222 224 262 279 187 160 172 159 171 187 188 193 182 181 184 179 181 179 174 176 181 181 188 181 171 172 170 164 165 165 161 165 158 154 153 159 158 151 156 159 165 146 160 125 131 113 106 110 98 122 110 134 153 166 146 133 132 153 127 50 31 74 66 57 66 36 18 18 18 61 62 51 53 41 21 24 29 28 20
324 318 308 295 291 293 294 282 281 272 253 265 265 263 265 285 290 306 299 31 7 286 92 85 120 158 185 194 194 193 185 171 172 176 183 174 172 173 174 183 184 173 174 168 168 170 164 173 165 167 159 154 155 160 159 156 159 169 150 150 147 141 134 107 108 111 134 131 173 139 143 67 75 112 113 88 76 86 77 51 72 61 44 56 40 24 23 12 38 56 48 36 34 22 28 39 33
288 288 289 304 280 259 239 248 254 256 264 267 273 277 281 293 331 287 301 297 285 279 116 160 162 169 184 191 196 195 179 171 170 176 166 171 169 175 175 176 175 170 175 169 172 167 171 167 169 164 161 157 156 161 161 154 159 153 145 148 145 131 135 125 128 132 157 143 104 59 9 138 143 123 107 119 109 92 46 47 48 65 64 45 44 43 37 10 17 26 45 69 15 2 15 42 83
241 251 262 259 283 284 271 237 235 231 249 251 252 254 246 240 347 328 321 302 287 82 129 117 130 158 177 190 198 197 172 171 171 173 174 167 170 174 175 176 173 175 180 173 169 168 170 164 170 165 162 157 152 157 160 150 157 147 149 161 134 140 130 132 134 145 141 135 119 126 161 78 75 174 159 143 131 102 99 80 68 48 48 51 73 68 46 31 346 49 347 52 64 357 353 21 15
237 239 238 242 258 253 254 259 272 289 270 257 273 313 275 32 292 300 297 73 65 58 66 69 66 59 118 195 199 175 169 169 168 173 168 165 171 170 173 175 168 171 179 173 166 166 165 165 166 160 164 150 150 158 154 150 150 149 150 147 140 140 137 144 137 149 143 107 116 150 151 171 212 93 71 48 54 66 64 62 77 77 57 40 11 82 88 39 5 18 7 0 58 23 349 9 32
246 218 224 259 254 263 280 274 276 287 313 329 349 4 38 298 33 34 45 70 65 65 63 55 42 51 21 160 148 165 163 160 165 171 175 170 165 169 170 169 164 170 178 170 168 164 164 165 169 163 161 155 149 150 153 151 146 151 150 140 125 143 149 154 152 148 124 135 166 148 137 175 101 71 68 61 79 88 92 89 70 60 71 37 48 36 57 57 39 25 341 2 26 33 14 356 41
276 287 269 221 244 265 270 284 288 299 305 308 309 306 111 241 173 112 114 70 70 74 79 73 61 39 38 6 178 169 175 158 169 175 159 148 143 131 169 168 164 166 176 167 170 166 168 165 170 162 159 156 153 149 147 141 142 154 140 154 141 157 164 139 90 106 84 115 129 124 145 79 88 100 111 141 96 84 115 129 107 94 77 75 43 74 76 70 83 63 22 0 35 24 18 21 6
223 228 254 275 294 274 288 280 263 264 257 252 254 255 250 239 71 54 61 68 77 70 67 67 64 30 332 230 269 185 149 151 169 170 150 139 144 151 193 177 167 168 167 165 174 173 169 165 169 159 153 154 148 149 145 143 158 152 147 156 159 161 172 134 135 165 136 125 99 156 149 114 109 129 140 102 79 67 42 47 56 61 56 70 79 36 90 144 136 98 80 48 33 23 2 29 360
283 267 253 281 245 286 274 282 303 295 292 296 257 297 320 76 16 1 62 84 54 66 71 87 87 85 88 83 199 115 132 138 151 162 144 151 156 172 181 183 170 168 165 165 170 169 171 173 168 157 155 154 155 151 147 152 157 150 154 168 165 175 179 158 164 163 112 127 172 98 96 139 150 138 112 103 105 97 79 88 101 99 99 90 66 55 1 327 151 145 117 65 40 35 14 10 15
241 251 304 294 233 217 201 238 262 256 253 285 282 283 320 3 148 91 74 69 60 50 67 90 84 78 70 63 80 139 147 165 166 172 149 157 166 173 172 180 168 165 169 171 166 171 171 174 162 160 158 153 148 151 149 148 149 149 158 162 174 173 191 128 106 103 125 156 151 128 135 90 95 90 109 139 139 144 138 150 155 147 151 125 105 89 33 12 17 52 68 65 32 6 52 15 22
241 264 269 278 290 266 281 199 258 319 288 287 273 216 56 36 32 65 72 60 60 49 36 42 68 81 98 131 159 181 151 138 156 140 146 161 168 172 173 179 163 171 175 169 169 172 173 165 159 160 152 147 142 146 146 149 152 154 159 169 179 183 100 104 123 125 141 172 127 127 115 144 127 132 132 167 149 158 169 189 175 102 82 70 99 109 83 63 62 347 29 83 68 28 7 66 25
193 220 254 251 241 294 288 300 290 268 289 274 261 263 69 36 36 57 73 72 59 54 47 59 69 97 119 157 189 159 156 159 159 141 149 158 164 168 173 166 155 164 170 164 168 172 168 165 168 158 140 147 148 148 147 156 149 157 167 149 147 92 111 127 129 137 159 139 124 131 169 120 117 123 147 82 55 48 48 55 67 80 85 91 347 46 115 128 22 236 170 197 117 61 356 95 39
214 199 232 229 244 220 222 263 228 263 303 299 313 69 61 38 23 41 56 58 59 56 69 35 100 147 156 167 176 172 159 168 148 144 159 166 167 164 148 137 142 154 147 161 170 172 168 174 168 147 146 147 151 146 149 154 151 157 164 135 129 87 134 133 127 153 149 126 142 168 119 117 119 104 103 114 127 135 120 139 91 67 72 60 57 27 57 33 343 341 360 20 40 184 108 114 125